Погода в Лопатине

Россия / Саратовская область     52°08′31″N   43°30′17″E
темп.,
°C
ветер,
м/с
пор.,
м/с
влажн.,
%
обл.,
%
осадки,
мм/ч
давл.,
гПа
погр.,
м
11 мая, вт
вт1101:00+14ссв8178797 0.1 1013415
04:00+13св8178542 0.1 1014586
07:00+10вюв5994100 0.9 1018556
10:00+10юв597697 1.4 1021829
13:00+13вюв695519 0.1 10231691
16:00+15юв710518 0.1 10232113
19:00+13ююв46645 0.0 1024548
22:00+8ю11754 0.0 102510
12 мая, ср
ср1201:00+7ссв3277100 0.0 102623
04:00+6ссв358743 0.0 102585
07:00+8ссв379176 0.0 1023188
10:00+9з2398100 6.6 1022143
13:00+11ссв1194100 1.1 1021234
16:00+11юв1294100 1.9 1021150
19:00+13юв358990 0.0 1021426
22:00+12в129522 0.0 102113
13 мая, чт
чт1301:00+10в34965 0.0 102156
04:00+13всв51194100 0.0 1019314
07:00+13в61391100 0.9 1018439
10:00+14вюв61286100 2.0 1018489
13:00+19юв797460 0.0 1018999
16:00+20ююв587248 0.3 1017916
19:00+20ю35752 0.3 1017169
22:00+16ююв12842 0.3 101811
14 мая, пт
пт1401:00+15вюв22889 0.0 101818
04:00+14вюв338996 0.0 101927
07:00+15вюв3689100 0.0 1019146
10:00+21вюв4671100 0.0 1018498
13:00+24юв5658100 0.0 10181082
16:00+26ююв68532 0.0 10171370
19:00+23юв49675 0.0 1016268
22:00+18юв412775 0.0 1016190
15 мая, сб
сб1501:00+18ююв61658100 0.0 1016358
04:00+16юв5156011 0.0 1016299
07:00+16ююв617615 0.0 1016392
10:00+21ююв716545 0.0 1015759
13:00+25ю71348100 0.0 10151160
16:00+25ююв7135072 0.0 10141315
19:00+23ююв511595 0.0 1014325
22:00+18ююв41271100 0.0 1013192